When you browse on this site, cookies collect data to enhance your experience and personalize the content and advertising you see.
Visit our Privacy Policy to learn more. By continuing to use the site, you agree to this use of cookies and data.
  • In Deutschland
  • Länderverzeichnis
  • Für 7 Tage
  • Wassertemperatur
  • Satellitenkarten
  • Wetterkarte
  • Widgets
  • user-avatar
    Anmelden

    Stündliche Wetter Minsk

    Heute, 23 Februar, Samstag

    Zeit Temperatur Niederschläge Wind Luftdruck Luftfeuchtigkeit
    00:00 -11°C° 0 mm 4 m/S 758 mmHg 81%
    01:00 -12°C° 0 mm 4 m/S 758 mmHg 84%
    02:00 -12°C° 0 mm 4 m/S 759 mmHg 87%
    03:00 -12°C° 0 mm 4 m/S 759 mmHg 87%
    04:00 -14°C° 0 mm 4 m/S 759 mmHg 88%
    05:00 -14°C° 0 mm 4 m/S 759 mmHg 89%
    06:00 -13°C° 0 mm 3 m/S 759 mmHg 87%
    07:00 -13°C° 0 mm 3 m/S 760 mmHg 85%
    08:00 -13°C° 0 mm 3 m/S 761 mmHg 82%
    09:00 -12°C° 0 mm 3 m/S 761 mmHg 78%
    10:00 -9°C° 0 mm 3 m/S 760 mmHg 74%
    11:00 -7°C° 0 mm 2 m/S 760 mmHg 69%
    12:00 -7°C° 0 mm 3 m/S 760 mmHg 68%
    13:00 -6°C° 0 mm 3 m/S 760 mmHg 67%
    14:00 -7°C° 0 mm 4 m/S 759 mmHg 66%
    15:00 -7°C° 0 mm 4 m/S 759 mmHg 65%
    16:00 -7°C° 0 mm 5 m/S 758 mmHg 64%
    17:00 -7°C° 0 mm 5 m/S 758 mmHg 62%
    18:00 -7°C° 0 mm 5 m/S 757 mmHg 64%
    19:00 -8°C° 0 mm 6 m/S 757 mmHg 65%
    20:00 -8°C° 0 mm 6 m/S 757 mmHg 67%
    21:00 -8°C° 0.1 mm 6 m/S 756 mmHg 69%
    22:00 -8°C° 0.1 mm 6 m/S 756 mmHg 71%
    23:00 -8°C° 0.1 mm 6 m/S 755 mmHg 73%

    Morgen, 24 Februar, Sonntag

    Zeit Temperatur Niederschläge Wind Luftdruck Luftfeuchtigkeit
    00:00 -8°C° 0 mm 6 m/S 755 mmHg 75%
    01:00 -7°C° 0 mm 5 m/S 755 mmHg 77%
    02:00 -7°C° 0 mm 5 m/S 754 mmHg 79%
    03:00 -6°C° 0 mm 5 m/S 754 mmHg 82%
    04:00 -6°C° 0 mm 5 m/S 754 mmHg 84%
    05:00 -6°C° 0 mm 5 m/S 754 mmHg 86%
    06:00 -6°C° 0 mm 5 m/S 754 mmHg 88%
    07:00 -5°C° 0 mm 4 m/S 754 mmHg 89%
    08:00 -5°C° 0 mm 4 m/S 754 mmHg 90%
    09:00 -4°C° 0 mm 4 m/S 754 mmHg 90%
    10:00 -3°C° 0 mm 4 m/S 754 mmHg 90%
    11:00 -3°C° 0 mm 4 m/S 754 mmHg 91%
    12:00 -2°C° 0 mm 4 m/S 753 mmHg 91%
    13:00 -2°C° 0 mm 4 m/S 753 mmHg 92%
    14:00 -1°C° 0 mm 4 m/S 753 mmHg 92%
    15:00 -1°C° 0 mm 4 m/S 753 mmHg 92%
    16:00 -1°C° 0 mm 3 m/S 752 mmHg 91%
    17:00 -1°C° 0 mm 3 m/S 752 mmHg 91%
    18:00 -2°C° 0 mm 4 m/S 752 mmHg 90%
    19:00 -2°C° 0 mm 4 m/S 752 mmHg 89%
    20:00 -2°C° 0 mm 4 m/S 752 mmHg 88%
    21:00 -3°C° 0 mm 4 m/S 751 mmHg 88%
    22:00 -4°C° 0 mm 5 m/S 751 mmHg 88%
    23:00 -4°C° 0 mm 5 m/S 750 mmHg 88%

    übermorgen, 25 Februar, Montag

    Zeit Temperatur Niederschläge Wind Luftdruck Luftfeuchtigkeit
    00:00 -4°C° 0 mm 5 m/S 750 mmHg 90%
    01:00 -4°C° 0 mm 5 m/S 750 mmHg 92%
    02:00 -4°C° 0 mm 5 m/S 749 mmHg 94%
    03:00 -2°C° 0 mm 5 m/S 749 mmHg 94%
    04:00 -2°C° 0 mm 5 m/S 749 mmHg 93%
    05:00 -2°C° 0 mm 5 m/S 749 mmHg 93%
    06:00 -2°C° 0 mm 5 m/S 749 mmHg 93%
    07:00 -4°C° 0 mm 5 m/S 749 mmHg 93%
    08:00 -4°C° 0 mm 5 m/S 749 mmHg 93%
    09:00 -2°C° 0 mm 5 m/S 748 mmHg 88%
    10:00 -2°C° 0 mm 6 m/S 748 mmHg 83%
    11:00 -1°C° 0 mm 6 m/S 748 mmHg 79%
    12:00 -1°C° 0 mm 6 m/S 747 mmHg 78%
    13:00 +1°C° 0 mm 6 m/S 747 mmHg 77%
    14:00 +1°C° 0 mm 6 m/S 746 mmHg 77%
    15:00 +1°C° 0 mm 6 m/S 746 mmHg 78%
    16:00 +1°C° 0 mm 6 m/S 746 mmHg 79%
    17:00 -1°C° 0 mm 6 m/S 746 mmHg 80%
    18:00 -1°C° 0 mm 6 m/S 746 mmHg 81%
    19:00 -2°C° 0 mm 6 m/S 746 mmHg 82%
    20:00 -2°C° 0 mm 6 m/S 746 mmHg 83%
    21:00 -3°C° 0 mm 6 m/S 746 mmHg 85%
    22:00 -3°C° 0 mm 6 m/S 746 mmHg 86%
    23:00 -3°C° 0 mm 6 m/S 745 mmHg 88%

    26 Februar, Dienstag

    Zeit Temperatur Niederschläge Wind Luftdruck Luftfeuchtigkeit
    00:00 -3°C° 0 mm 6 m/S 745 mmHg 89%
    01:00 -4°C° 0 mm 6 m/S 745 mmHg 90%
    02:00 -4°C° 0 mm 6 m/S 745 mmHg 90%
    03:00 -4°C° 0 mm 6 m/S 744 mmHg 90%
    04:00 -4°C° 0 mm 6 m/S 744 mmHg 89%
    05:00 -4°C° 0 mm 6 m/S 743 mmHg 88%
    06:00 -3°C° 0 mm 6 m/S 743 mmHg 88%
    07:00 -3°C° 0 mm 6 m/S 743 mmHg 88%
    08:00 -3°C° 0 mm 6 m/S 742 mmHg 87%
    09:00 -2°C° 0 mm 6 m/S 742 mmHg 86%
    10:00 -2°C° 0 mm 7 m/S 741 mmHg 84%
    11:00 -1°C° 0 mm 7 m/S 741 mmHg 82%
    12:00 -1°C° 0 mm 7 m/S 741 mmHg 84%
    13:00 -1°C° 0 mm 7 m/S 741 mmHg 86%
    14:00 0°C° 0 mm 7 m/S 741 mmHg 89%
    15:00 0°C° 0 mm 7 m/S 741 mmHg 89%
    16:00 -1°C° 0 mm 7 m/S 741 mmHg 89%
    17:00 -1°C° 0 mm 7 m/S 741 mmHg 89%
    18:00 -1°C° 0 mm 7 m/S 742 mmHg 89%
    19:00 -1°C° 0 mm 7 m/S 742 mmHg 89%
    20:00 -1°C° 0 mm 6 m/S 743 mmHg 88%
    21:00 -2°C° 0 mm 6 m/S 743 mmHg 89%
    22:00 -2°C° 0 mm 6 m/S 744 mmHg 89%
    23:00 -1°C° 0 mm 5 m/S 744 mmHg 90%

    27 Februar, Mittwoch

    Zeit Temperatur Niederschläge Wind Luftdruck Luftfeuchtigkeit
    00:00 -2°C° 0 mm 5 m/S 744 mmHg 90%
    01:00 -2°C° 0 mm 5 m/S 744 mmHg 90%
    02:00 -2°C° 0 mm 4 m/S 745 mmHg 90%
    03:00 -2°C° 0 mm 4 m/S 745 mmHg 90%
    04:00 -2°C° 0 mm 4 m/S 745 mmHg 91%
    05:00 -2°C° 0 mm 4 m/S 745 mmHg 91%
    06:00 -2°C° 0 mm 4 m/S 745 mmHg 91%
    07:00 -2°C° 0 mm 4 m/S 745 mmHg 92%
    08:00 -2°C° 0 mm 3 m/S 745 mmHg 92%
    09:00 -1°C° 0 mm 3 m/S 745 mmHg 92%
    10:00 -2°C° 0 mm 4 m/S 744 mmHg 91%
    11:00 -2°C° 0 mm 4 m/S 744 mmHg 90%
    12:00 -1°C° 0 mm 4 m/S 743 mmHg 88%
    13:00 0°C° 0 mm 4 m/S 743 mmHg 87%
    14:00 0°C° 0 mm 4 m/S 742 mmHg 85%
    15:00 0°C° 0 mm 4 m/S 742 mmHg 84%
    16:00 0°C° 0 mm 4 m/S 741 mmHg 82%
    17:00 0°C° 0 mm 4 m/S 740 mmHg 81%
    18:00 0°C° 0 mm 4 m/S 740 mmHg 84%
    19:00 0°C° 0 mm 5 m/S 740 mmHg 87%
    20:00 0°C° 0 mm 5 m/S 740 mmHg 90%
    21:00 0°C° 0 mm 4 m/S 740 mmHg 92%
    22:00 -1°C° 0 mm 4 m/S 739 mmHg 93%
    23:00 -2°C° 0 mm 4 m/S 739 mmHg 94%

    28 Februar, Donnerstag

    Zeit Temperatur Niederschläge Wind Luftdruck Luftfeuchtigkeit
    00:00 -2°C° 0 mm 4 m/S 739 mmHg 93%
    01:00 -1°C° 0 mm 3 m/S 738 mmHg 91%
    02:00 -2°C° 0 mm 3 m/S 738 mmHg 90%
    03:00 -2°C° 0 mm 3 m/S 738 mmHg 88%
    04:00 -2°C° 0 mm 3 m/S 737 mmHg 87%
    05:00 -1°C° 0 mm 3 m/S 736 mmHg 85%
    06:00 -1°C° 0 mm 3 m/S 736 mmHg 85%
    07:00 -1°C° 0 mm 3 m/S 735 mmHg 84%
    08:00 0°C° 0 mm 3 m/S 734 mmHg 84%
    09:00 -1°C° 0 mm 4 m/S 733 mmHg 82%
    10:00 -1°C° 0 mm 4 m/S 732 mmHg 80%
    11:00 0°C° 0 mm 5 m/S 731 mmHg 79%
    12:00 0°C° 0.5 mm 5 m/S 730 mmHg 83%
    13:00 0°C° 0.5 mm 5 m/S 728 mmHg 87%
    14:00 -1°C° 0.5 mm 6 m/S 727 mmHg 91%
    15:00 -1°C° 0.4 mm 6 m/S 727 mmHg 91%
    16:00 -1°C° 0.4 mm 6 m/S 726 mmHg 92%
    17:00 +1°C° 0.4 mm 6 m/S 726 mmHg 92%
    18:00 +1°C° 0 mm 6 m/S 726 mmHg 90%
    19:00 -1°C° 0 mm 7 m/S 726 mmHg 87%
    20:00 -1°C° 0 mm 7 m/S 726 mmHg 85%
    21:00 -1°C° 0 mm 7 m/S 726 mmHg 84%
    22:00 -1°C° 0 mm 7 m/S 726 mmHg 83%
    23:00 -1°C° 0 mm 7 m/S 726 mmHg 82%
    Mehr zeigen